Flag for Germany Weather past 2 weeks in Bad Vilbel, Hesse, Germany

Now
64 °F

Partly sunny.


Feels Like: 64 °F
Forecast: 46 / 64 °F
Wind: 6 mph from Southwest

Location: Frankfurt / M-Flughafen

Current Time: May 28, 2015 at 1:11:56 PM

Latest Report: May 28, 2015 at 12:00 PM


Visibility: 25 mi

Pressure: 30.02 "Hg

Humidity: 52%

Dew point: 46 °F

Location of Bad VilbelLocation

Historic Weather in Bad Vilbel — Graph

°F

Bad Vilbel temperature yesterday

Maximum temperature yesterday: 59 °F (at 6:00 PM)
Minimum temperature yesterday: 40 °F (at 4:00 AM)
Average temperature yesterday: 51 °F

Past Weeks' High & Low Weather Summary

 TemperatureHumidityPressure
High72 °F (May 18, 4:00 PM)98% (May 13, 10:00 PM)30.35 "Hg (May 13, 10:00 PM)
Low39 °F (May 28, 3:00 AM)25% (May 18, 3:00 PM)29.67 "Hg (May 19, 3:00 AM)
Average58 °F60%30.06 "Hg
* Reported May 13 12:00 Noon — May 28 12:00 Noon, Bad Vilbel, Weather by CustomWeather, © 2015

Note: Actual official high and low records may vary slightly from our data, if they occured in-between our weather recording intervals... More about our weather records

Advertising

Bad Vilbel weather history for previous 24 hours

 ConditionsComfort  
Time TempWeatherWind HumidityBarometerVisibility
12:00 PM
Thu, May 28
64 °FPartly sunny.6 mph52%30.02 "Hg25 mi
10:00 AM54 °FOvercast.5 mph68%30.07 "Hg25 mi
9:00 AM52 °FOvercast.6 mph70%30.09 "Hg25 mi
8:00 AM48 °FOvercast.5 mph80%30.10 "Hg25 mi
7:00 AM44 °FOvercast.2 mph87%30.10 "Hg25 mi
6:00 AM41 °FPartly sunny.1 mph92%30.10 "Hg25 mi
4:00 AM41 °FOvercast.1 mph91%30.13 "Hg28 mi
3:00 AM39 °FPassing clouds.1 mph93%30.14 "Hg28 mi
2:00 AM40 °FPassing clouds.1 mph92%30.15 "Hg31 mi
1:00 AM41 °FPassing clouds.1 mph91%30.16 "Hg31 mi
12:00 AM43 °FPassing clouds.1 mph85%30.18 "Hg31 mi
10:00 PM
Wed, May 27
48 °FPassing clouds.2 mph72%30.19 "Hg37 mi
9:00 PM54 °FPassing clouds.2 mph58%30.19 "Hg40 mi
8:00 PM59 °FPartly sunny.2 mph41%30.19 "Hg40 mi
7:00 PM59 °FOvercast.2 mph42%30.21 "Hg40 mi
6:00 PM59 °FOvercast.2 mph40%30.22 "Hg40 mi
4:00 PM58 °FOvercast.1 mph44%30.23 "Hg37 mi
3:00 PM57 °FOvercast.2 mph45%30.25 "Hg34 mi
2:00 PM57 °FOvercast.1 mph49%30.26 "Hg31 mi
1:00 PM55 °FOvercast.3 mph56%30.27 "Hg28 mi
Weather by CustomWeather, © 2015

See weather overviewHow to use our weather pages